START_TIME,STEP,MOV.,M6,t_acc.,M7,t_acc.,M19,t_acc.,H36,t_acc.
1989-08-24T00:00:28.040 ,5,0,0.,12.0,0.,12.0,0.,12.0,0.,12.0
1989-08-24T00:00:40.040 ,5,0,0.,12.0,0.,12.0,0.,12.0,0.,12.0
1989-08-24T00:00:52.040 ,4,1,0.,12.0,0.,12.0,0.,12.0,0.,12.0
1989-08-24T00:01:04.040 ,4,1,0.,12.0,0.,12.0,0.,12.0,0.,12.0
1989-08-24T00:01:16.040 ,4,0,0.,12.0,0.,12.0,0.,12.0,0.,12.0
1989-08-24T00:01:28.040 ,4,0,0.,12.0,0.,12.0,0.,12.0,0.,12.0
1989-08-24T00:01:40.040 ,3,1,0.,12.0,0.,12.0,0.,12.0,0.,12.0
1989-08-24T00:01:52.040 ,3,1,0.,12.0,0.,12.0,0.,12.0,0.,12.0
1989-08-24T00:02:04.040 ,3,0,0.,12.0,0.,12.0,0.,12.0,0.,12.0
1989-08-24T00:02:16.040 ,3,0,0.,12.0,0.,12.0,0.,12.0,0.,12.0
1989-08-24T00:02:28.040 ,2,1,0.,12.0,0.,12.0,0.,12.0,0.,12.0
1989-08-24T00:02:40.040 ,2,1,0.,12.0,0.,12.0,0.,12.0,0.,12.0
1989-08-24T00:02:52.040 ,2,0,0.,12.0,0.,12.0,0.,12.0,0.,12.0
1989-08-24T00:03:04.040 ,2,0,0.,12.0,0.,12.0,0.,12.0,0.,12.0
1989-08-24T00:03:16.040 ,1,1,0.,12.0,0.,12.0,0.,12.0,0.,12.0
1989-08-24T00:03:28.040 ,1,1,0.,12.0,0.,12.0,0.,12.0,0.,12.0
1989-08-24T00:03:40.040 ,1,0,0.,12.0,0.,12.0,0.,12.0,0.,12.0
1989-08-24T00:03:52.040 ,1,0,0.,12.0,0.,12.0,0.,12.0,0.,12.0
1989-08-24T00:04:04.040 ,0,1,0.,12.0,0.,12.0,0.,12.0,0.,12.0
1989-08-24T00:04:16.040 ,0,1,0.,12.0,0.,12.0,0.,12.0,0.,12.0
1989-08-24T00:04:28.040 ,0,0,0.,12.0,0.,12.0,0.,12.0,0.,12.0
1989-08-24T00:04:40.040 ,0,0,0.,12.0,0.,12.0,0.,12.0,0.,12.0
1989-08-24T00:04:52.040 ,0,1,0.,12.0,0.,12.0,0.,12.0,0.,12.0
1989-08-24T00:05:04.040 ,0,1,0.,12.0,0.,12.0,0.,12.0,0.,12.0
1989-08-24T00:05:16.040 ,0,0,0.,12.0,0.,12.0,0.,12.0,0.,12.0
1989-08-24T00:05:28.040 ,0,0,0.,12.0,0.,12.0,0.,12.0,0.,12.0
1989-08-24T00:05:40.040 ,1,1,0.,12.0,0.,12.0,0.,12.0,0.,12.0
1989-08-24T00:05:52.040 ,1,1,0.,12.0,0.,12.0,0.,12.0,0.,12.0
1989-08-24T00:06:04.040 ,1,0,0.,12.0,0.,12.0,0.,12.0,0.,12.0
1989-08-24T00:06:16.040 ,1,0,0.,12.0,0.,12.0,0.,12.0,0.,12.0
1989-08-24T00:06:28.040 ,2,1,0.,12.0,0.,12.0,0.,12.0,0.,12.0
1989-08-24T00:06:40.040 ,2,1,0.,12.0,0.,12.0,0.,12.0,0.,12.0
1989-08-24T00:06:52.040 ,2,0,0.,12.0,0.,12.0,0.,12.0,0.,12.0
1989-08-24T00:07:04.040 ,2,0,0.,12.0,0.,12.0,0.,12.0,0.,12.0
1989-08-24T00:07:16.040 ,3,1,0.,12.0,0.,12.0,0.,12.0,0.,12.0
1989-08-24T00:07:28.040 ,3,1,0.,12.0,0.,12.0,0.,12.0,0.,12.0
1989-08-24T00:07:40.040 ,3,0,0.,12.0,0.,12.0,0.,12.0,0.,12.0
1989-08-24T00:07:52.040 ,3,0,0.,12.0,0.,12.0,0.,12.0,0.,12.0
1989-08-24T00:08:04.040 ,4,1,0.,12.0,0.,12.0,0.,12.0,0.,12.0
1989-08-24T00:08:16.040 ,4,1,0.,12.0,0.,12.0,0.,12.0,0.,12.0
1989-08-24T00:08:28.040 ,4,0,0.,12.0,0.,12.0,0.,12.0,0.,12.0
1989-08-24T00:08:40.040 ,4,0,0.,12.0,0.,12.0,0.,12.0,0.,12.0
1989-08-24T00:08:52.040 ,5,1,0.,12.0,0.,12.0,0.,12.0,0.,12.0
1989-08-24T00:09:04.040 ,5,1,0.,12.0,0.,12.0,0.,12.0,0.,12.0
1989-08-24T00:09:16.040 ,5,0,0.,12.0,0.,12.0,0.,12.0,0.,12.0
1989-08-24T00:09:28.040 ,5,0,0.,12.0,0.,12.0,0.,12.0,0.,12.0
1989-08-24T00:09:40.040 ,6,1,0.,12.0,0.,12.0,0.,12.0,0.,12.0
1989-08-24T00:09:52.040 ,6,1,0.,12.0,0.,12.0,0.,12.0,0.,12.0
1989-08-24T00:10:04.040 ,6,0,0.,12.0,0.,12.0,0.,12.0,0.,12.0
1989-08-24T00:10:16.040 ,6,0,0.,12.0,0.,12.0,0.,12.0,0.,12.0
1989-08-24T00:10:28.040 ,7,1,0.,12.0,0.,12.0,0.,12.0,0.,12.0
1989-08-24T00:10:40.040 ,7,1,0.,12.0,0.,12.0,0.,12.0,0.,12.0
1989-08-24T00:10:52.040 ,7,0,0.,12.0,0.,12.0,0.,12.0,0.,12.0
1989-08-24T00:11:04.040 ,7,0,0.,12.0,0.,12.0,0.,12.0,0.,12.0
1989-08-24T00:11:16.040 ,7,1,0.,12.0,0.,12.0,0.,12.0,0.,12.0
1989-08-24T00:11:28.040 ,7,1,0.,12.0,0.,12.0,0.,12.0,0.,12.0
1989-08-24T00:11:40.040 ,7,0,0.,12.0,0.,12.0,0.,12.0,0.,12.0
1989-08-24T00:11:52.040 ,7,0,0.,12.0,0.,12.0,0.,12.0,0.,12.0
1989-08-24T00:12:04.040 ,6,1,0.,12.0,0.,12.0,0.,12.0,0.,12.0
1989-08-24T00:12:16.040 ,6,1,0.,12.0,0.,12.0,0.,12.0,0.,12.0
1989-08-24T00:12:28.040 ,6,0,0.,12.0,0.,12.0,0.,12.0,0.,12.0
1989-08-24T00:12:40.040 ,6,0,0.,12.0,0.,12.0,0.,12.0,0.,12.0
1989-08-24T00:12:52.040 ,5,1,0.,12.0,0.,12.0,0.,12.0,0.,12.0
1989-08-24T00:13:04.040 ,5,1,0.,12.0,0.,12.0,0.,12.0,0.,12.0
1989-08-24T00:13:16.040 ,5,0,0.,12.0,0.,12.0,0.,12.0,0.,12.0
1989-08-24T00:13:28.040 ,5,0,0.,12.0,0.,12.0,0.,12.0,0.,12.0
1989-08-24T00:13:40.040 ,4,1,0.,12.0,0.,12.0,0.,12.0,0.,12.0
1989-08-24T00:13:52.040 ,4,1,0.,12.0,0.,12.0,0.,12.0,0.,12.0
1989-08-24T00:14:04.040 ,4,0,0.,12.0,0.,12.0,0.,12.0,0.,12.0
1989-08-24T00:14:16.040 ,4,0,0.,12.0,0.,12.0,0.,12.0,0.,12.0
1989-08-24T00:14:28.040 ,3,1,0.,12.0,0.,12.0,0.,12.0,0.,12.0
1989-08-24T00:14:40.040 ,3,1,0.,12.0,0.,12.0,0.,12.0,0.,12.0
1989-08-24T00:14:52.040 ,3,0,0.,12.0,0.,12.0,0.,12.0,0.,12.0
1989-08-24T00:15:04.040 ,3,0,0.,12.0,0.,12.0,0.,12.0,0.,12.0
1989-08-24T00:15:16.040 ,2,1,0.,12.0,0.,12.0,0.,12.0,0.,12.0
1989-08-24T00:15:28.040 ,2,1,0.,12.0,0.,12.0,0.,12.0,0.,12.0
1989-08-24T00:15:40.040 ,2,0,0.,12.0,0.,12.0,0.,12.0,0.,12.0
1989-08-24T00:15:52.040 ,2,0,0.,12.0,0.,12.0,0.,12.0,0.,12.0
1989-08-24T00:16:04.040 ,1,1,0.,12.0,0.,12.0,0.,12.0,0.,12.0
1989-08-24T00:16:16.040 ,1,1,0.,12.0,0.,12.0,0.,12.0,0.,12.0
1989-08-24T00:16:28.040 ,1,0,0.,12.0,0.,12.0,0.,12.0,0.,12.0
1989-08-24T00:16:40.040 ,1,0,0.,12.0,0.,12.0,0.,12.0,0.,12.0
1989-08-24T00:16:52.040 ,0,1,0.,12.0,0.,12.0,0.,12.0,0.,12.0
1989-08-24T00:17:04.040 ,0,1,0.,12.0,0.,12.0,0.,12.0,0.,12.0
1989-08-24T00:17:16.040 ,0,0,0.,12.0,0.,12.0,0.,12.0,0.,12.0
1989-08-24T00:17:28.040 ,0,0,0.,12.0,0.,12.0,0.,12.0,0.,12.0
1989-08-24T00:17:40.040 ,0,1,0.,12.0,0.,12.0,0.,12.0,0.,12.0
1989-08-24T00:17:52.040 ,0,1,0.,12.0,0.,12.0,0.,12.0,0.,12.0
1989-08-24T00:18:04.040 ,0,0,0.,12.0,0.,12.0,0.,12.0,0.,12.0
1989-08-24T00:18:16.040 ,0,0,0.,12.0,0.,12.0,0.,12.0,0.,12.0
1989-08-24T00:18:28.040 ,1,1,0.,12.0,0.,12.0,0.,12.0,0.,12.0
1989-08-24T00:18:40.040 ,1,1,0.,12.0,0.,12.0,0.,12.0,0.,12.0
1989-08-24T00:18:52.040 ,1,0,0.,12.0,0.,12.0,0.,12.0,0.,12.0
1989-08-24T00:19:04.040 ,1,0,0.,12.0,0.,12.0,0.,12.0,0.,12.0
1989-08-24T00:19:16.040 ,2,1,0.,12.0,0.,12.0,0.,12.0,0.,12.0
1989-08-24T00:19:28.040 ,2,1,0.,12.0,0.,12.0,0.,12.0,0.,12.0
1989-08-24T00:19:40.040 ,2,0,0.,12.0,0.,12.0,0.,12.0,0.,12.0
1989-08-24T00:19:52.040 ,2,0,0.,12.0,0.,12.0,0.,12.0,0.,12.0
1989-08-24T00:20:04.040 ,3,1,0.,12.0,0.,12.0,0.,12.0,0.,12.0
1989-08-24T00:20:16.040 ,3,1,0.,12.0,0.,12.0,0.,12.0,0.,12.0
1989-08-24T00:20:28.040 ,3,0,0.,12.0,0.,12.0,0.,12.0,0.,12.0
1989-08-24T00:20:40.040 ,3,0,0.,12.0,0.,12.0,0.,12.0,0.,12.0
1989-08-24T00:20:52.040 ,4,1,0.,12.0,0.,12.0,0.,12.0,0.,12.0
1989-08-24T00:21:04.040 ,4,1,0.,12.0,0.,12.0,0.,12.0,0.,12.0
1989-08-24T00:21:16.040 ,4,0,0.,12.0,0.,12.0,0.,12.0,0.,12.0
1989-08-24T00:21:28.040 ,4,0,0.,12.0,0.,12.0,0.,12.0,0.,12.0
1989-08-24T00:21:40.040 ,5,1,0.,12.0,0.,12.0,0.,12.0,0.,12.0
1989-08-24T00:21:52.040 ,5,1,0.,12.0,0.,12.0,0.,12.0,0.,12.0
1989-08-24T00:22:04.040 ,5,0,0.,12.0,0.,12.0,0.,12.0,0.,12.0
1989-08-24T00:22:16.040 ,5,0,0.,12.0,0.,12.0,0.,12.0,0.,12.0
1989-08-24T00:22:28.040 ,6,1,0.,12.0,0.,12.0,0.,12.0,0.,12.0
1989-08-24T00:22:40.040 ,6,1,0.,12.0,0.,12.0,0.,12.0,0.,12.0
1989-08-24T00:22:52.040 ,6,0,0.,12.0,0.,12.0,0.,12.0,0.,12.0
1989-08-24T00:23:04.040 ,6,0,0.,12.0,0.,12.0,0.,12.0,0.,12.0
1989-08-24T00:23:16.040 ,7,1,0.,12.0,0.,12.0,0.,12.0,0.,12.0
1989-08-24T00:23:28.040 ,7,1,0.,12.0,0.,12.0,0.,12.0,0.,12.0
1989-08-24T00:23:40.040 ,7,0,0.,12.0,0.,12.0,0.,12.0,0.,12.0
1989-08-24T00:23:52.040 ,7,0,0.,12.0,0.,12.0,0.,12.0,0.,12.0
1989-08-24T00:24:04.040 ,7,1,0.,12.0,0.,12.0,0.,12.0,0.,12.0
1989-08-24T00:24:16.040 ,7,1,0.,12.0,0.,12.0,0.,12.0,0.,12.0
1989-08-24T00:24:28.040 ,7,0,0.,12.0,0.,12.0,0.,12.0,0.,12.0
1989-08-24T00:24:40.040 ,7,0,0.,12.0,0.,12.0,0.,12.0,0.,12.0
1989-08-24T00:24:52.040 ,6,1,0.,12.0,0.,12.0,0.,12.0,0.,12.0
1989-08-24T00:25:04.040 ,6,1,0.,12.0,0.,12.0,0.,12.0,0.,12.0
1989-08-24T00:25:16.040 ,6,0,0.,12.0,0.,12.0,0.,12.0,0.,12.0
1989-08-24T00:25:28.040 ,6,0,0.,12.0,0.,12.0,0.,12.0,0.,12.0
1989-08-24T00:25:40.040 ,5,1,0.,12.0,0.,12.0,0.,12.0,0.,12.0
1989-08-24T00:25:52.040 ,5,1,0.,12.0,0.,12.0,0.,12.0,0.,12.0
1989-08-24T00:26:04.040 ,5,0,0.,12.0,0.,12.0,0.,12.0,0.,12.0
1989-08-24T00:26:16.040 ,5,0,0.,12.0,0.,12.0,0.,12.0,0.,12.0
1989-08-24T00:26:28.040 ,4,1,0.,12.0,0.,12.0,0.,12.0,0.,12.0
1989-08-24T00:26:40.040 ,4,1,0.,12.0,0.,12.0,0.,12.0,0.,12.0
1989-08-24T00:26:52.040 ,4,0,0.,12.0,0.,12.0,0.,12.0,0.,12.0
1989-08-24T00:27:04.040 ,4,0,0.,12.0,0.,12.0,0.,12.0,0.,12.0
1989-08-24T00:27:16.040 ,3,1,0.,12.0,0.,12.0,0.,12.0,0.,12.0
1989-08-24T00:27:28.040 ,3,1,0.,12.0,0.,12.0,0.,12.0,0.,12.0
1989-08-24T00:27:40.040 ,3,0,0.,12.0,0.,12.0,0.,12.0,0.,12.0
1989-08-24T00:27:52.040 ,3,0,0.,12.0,0.,12.0,0.,12.0,0.,12.0
1989-08-24T00:28:04.040 ,2,1,0.,12.0,0.,12.0,0.,12.0,0.,12.0
1989-08-24T00:28:16.040 ,2,1,0.,12.0,0.,12.0,0.,12.0,0.,12.0
1989-08-24T00:28:28.040 ,2,0,0.,12.0,0.,12.0,0.,12.0,0.,12.0
1989-08-24T00:28:40.040 ,2,0,0.,12.0,0.,12.0,0.,12.0,0.,12.0
1989-08-24T00:28:52.040 ,1,1,0.,12.0,0.,12.0,0.,12.0,0.,12.0
1989-08-24T00:29:04.040 ,1,1,0.,12.0,0.,12.0,0.,12.0,0.,12.0
1989-08-24T00:29:16.040 ,1,0,0.,12.0,0.,12.0,0.,12.0,0.,12.0
1989-08-24T00:29:28.040 ,1,0,0.,12.0,0.,12.0,0.,12.0,0.,12.0
1989-08-24T00:29:40.040 ,0,1,0.,12.0,0.,12.0,0.,12.0,0.,12.0
1989-08-24T00:29:52.040 ,0,1,0.,12.0,0.,12.0,0.,12.0,0.,12.0
1989-08-24T00:30:04.040 ,0,0,0.,12.0,0.,12.0,0.,12.0,0.,12.0
1989-08-24T00:30:16.040 ,0,0,0.,12.0,0.,12.0,0.,12.0,0.,12.0
1989-08-24T00:30:28.040 ,0,1,0.,12.0,0.,12.0,0.,12.0,0.,12.0
1989-08-24T00:30:40.040 ,0,1,0.,12.0,0.,12.0,0.,12.0,0.,12.0
1989-08-24T00:30:52.040 ,0,0,0.,12.0,0.,12.0,0.,12.0,0.,12.0
1989-08-24T00:31:04.040 ,0,0,0.,12.0,0.,12.0,0.,12.0,0.,12.0
1989-08-24T00:31:16.040 ,1,1,0.,12.0,0.,12.0,0.,12.0,0.,12.0
1989-08-24T00:31:28.040 ,1,1,0.,12.0,0.,12.0,0.,12.0,0.,12.0
1989-08-24T00:31:40.040 ,1,0,0.,12.0,0.,12.0,0.,12.0,0.,12.0
1989-08-24T00:31:52.040 ,1,0,0.,12.0,0.,12.0,0.,12.0,0.,12.0
1989-08-24T00:32:04.040 ,2,1,0.,12.0,0.,12.0,0.,12.0,0.,12.0
1989-08-24T00:32:16.040 ,2,1,0.,12.0,0.,12.0,0.,12.0,0.,12.0
1989-08-24T00:32:28.040 ,2,0,0.,12.0,0.,12.0,0.,12.0,0.,12.0
1989-08-24T00:32:40.040 ,2,0,0.,12.0,0.,12.0,0.,12.0,0.,12.0
1989-08-24T00:32:52.040 ,3,1,0.,12.0,0.,12.0,0.,12.0,0.,12.0
1989-08-24T00:33:04.040 ,3,1,0.,12.0,0.,12.0,0.,12.0,0.,12.0
1989-08-24T00:33:16.040 ,3,0,0.,12.0,0.,12.0,0.,12.0,0.,12.0
1989-08-24T00:33:28.040 ,3,0,0.,12.0,0.,12.0,0.,12.0,0.,12.0
1989-08-24T00:33:40.040 ,4,1,0.,12.0,0.,12.0,0.,12.0,0.,12.0
1989-08-24T00:33:52.040 ,4,1,0.,12.0,0.,12.0,0.,12.0,0.,12.0
1989-08-24T00:34:04.040 ,4,0,0.,12.0,0.,12.0,0.,12.0,0.,12.0
1989-08-24T00:34:16.040 ,4,0,0.,12.0,0.,12.0,0.,12.0,0.,12.0
1989-08-24T00:34:28.040 ,5,1,0.,12.0,0.,12.0,0.,12.0,0.,12.0
1989-08-24T00:34:40.040 ,5,1,0.,12.0,0.,12.0,0.,12.0,0.,12.0
1989-08-24T00:34:52.040 ,5,0,0.,12.0,0.,12.0,0.,12.0,0.,12.0
1989-08-24T00:35:04.040 ,5,0,0.,12.0,0.,12.0,0.,12.0,0.,12.0
1989-08-24T00:35:16.040 ,6,1,0.,12.0,0.,12.0,0.,12.0,0.,12.0
1989-08-24T00:35:28.040 ,6,1,0.,12.0,0.,12.0,0.,12.0,0.,12.0
1989-08-24T00:35:40.040 ,6,0,0.,12.0,0.,12.0,0.,12.0,0.,12.0
1989-08-24T00:35:52.040 ,6,0,0.,12.0,0.,12.0,0.,12.0,0.,12.0
1989-08-24T00:36:04.040 ,7,1,0.,12.0,0.,12.0,0.,12.0,0.,12.0
1989-08-24T00:36:16.040 ,7,1,0.,12.0,0.,12.0,0.,12.0,0.,12.0
1989-08-24T00:36:28.040 ,7,0,0.,12.0,0.,12.0,0.,12.0,0.,12.0
1989-08-24T00:36:40.040 ,7,0,0.,12.0,0.,12.0,0.,12.0,0.,12.0
1989-08-24T00:36:52.040 ,7,1,0.,12.0,0.,12.0,0.,12.0,0.,12.0
1989-08-24T00:37:04.040 ,7,1,0.,12.0,0.,12.0,0.,12.0,0.,12.0
1989-08-24T00:37:16.040 ,7,0,0.,12.0,0.,12.0,0.,12.0,0.,12.0
1989-08-24T00:37:28.040 ,7,0,0.,12.0,0.,12.0,0.,12.0,0.,12.0
1989-08-24T00:37:40.040 ,6,1,0.,12.0,0.,12.0,0.,12.0,0.,12.0
1989-08-24T00:37:52.040 ,6,1,0.,12.0,0.,12.0,0.,12.0,0.,12.0
1989-08-24T00:38:04.040 ,6,0,0.,12.0,0.,12.0,0.,12.0,0.,12.0
1989-08-24T00:38:16.040 ,6,0,0.,12.0,0.,12.0,0.,12.0,0.,12.0
1989-08-24T00:38:28.040 ,5,1,0.,12.0,0.,12.0,0.,12.0,0.,12.0
1989-08-24T00:38:40.040 ,5,1,0.,12.0,0.,12.0,0.,12.0,0.,12.0
1989-08-24T00:38:52.040 ,5,0,0.,12.0,0.,12.0,0.,12.0,0.,12.0
1989-08-24T00:39:04.040 ,5,0,0.,12.0,0.,12.0,0.,12.0,0.,12.0
1989-08-24T00:39:16.040 ,4,1,0.,12.0,0.,12.0,0.,12.0,0.,12.0
1989-08-24T00:39:28.040 ,4,1,0.,12.0,0.,12.0,0.,12.0,0.,12.0
1989-08-24T00:39:40.040 ,4,0,0.,12.0,0.,12.0,0.,12.0,0.,12.0
1989-08-24T00:39:52.040 ,4,0,0.,12.0,0.,12.0,0.,12.0,0.,12.0
1989-08-24T00:40:04.040 ,3,1,0.,12.0,0.,12.0,0.,12.0,0.,12.0
1989-08-24T00:40:16.040 ,3,1,0.,12.0,0.,12.0,0.,12.0,0.,12.0
1989-08-24T00:40:28.040 ,3,0,0.,12.0,0.,12.0,0.,12.0,0.,12.0
1989-08-24T00:40:40.040 ,3,0,0.,12.0,0.,12.0,0.,12.0,0.,12.0
1989-08-24T00:40:52.040 ,2,1,0.,12.0,0.,12.0,0.,12.0,0.,12.0
1989-08-24T00:41:04.040 ,2,1,0.,12.0,0.,12.0,0.,12.0,0.,12.0
1989-08-24T00:41:16.040 ,2,0,0.,12.0,0.,12.0,0.,12.0,0.,12.0
1989-08-24T00:41:28.040 ,2,0,0.,12.0,0.,12.0,0.,12.0,0.,12.0
1989-08-24T00:41:40.040 ,1,1,0.,12.0,0.,12.0,0.,12.0,0.,12.0
1989-08-24T00:41:52.040 ,1,1,0.,12.0,0.,12.0,0.,12.0,0.,12.0
1989-08-24T00:42:04.040 ,1,0,0.,12.0,0.,12.0,0.,12.0,0.,12.0
1989-08-24T00:42:16.040 ,1,0,0.,12.0,0.,12.0,0.,12.0,0.,12.0
1989-08-24T00:42:28.040 ,0,1,0.,12.0,0.,12.0,0.,12.0,0.,12.0
1989-08-24T00:42:40.040 ,0,1,0.,12.0,0.,12.0,0.,12.0,0.,12.0
1989-08-24T00:42:52.040 ,0,0,0.,12.0,0.,12.0,0.,12.0,0.,12.0
1989-08-24T00:43:04.040 ,0,0,0.,12.0,0.,12.0,0.,12.0,0.,12.0
1989-08-24T00:43:16.040 ,0,1,0.,12.0,0.,12.0,0.,12.0,0.,12.0
1989-08-24T00:43:28.040 ,0,1,0.,12.0,0.,12.0,0.,12.0,0.,12.0
1989-08-24T00:43:40.040 ,0,0,0.,12.0,0.,12.0,0.,12.0,0.,12.0
1989-08-24T00:43:52.040 ,0,0,0.,12.0,0.,12.0,0.,12.0,0.,12.0
1989-08-24T00:44:04.040 ,1,1,0.,12.0,0.,12.0,0.,12.0,0.,12.0
1989-08-24T00:44:16.040 ,1,1,0.,12.0,0.,12.0,0.,12.0,0.,12.0
1989-08-24T00:44:28.040 ,1,0,0.,12.0,0.,12.0,0.,12.0,0.,12.0
1989-08-24T00:44:40.040 ,1,0,0.,12.0,0.,12.0,0.,12.0,0.,12.0
1989-08-24T00:44:52.040 ,2,1,0.,12.0,0.,12.0,0.,12.0,0.,12.0
1989-08-24T00:45:04.040 ,2,1,0.,12.0,0.,12.0,0.,12.0,0.,12.0
1989-08-24T00:45:16.040 ,2,0,0.,12.0,0.,12.0,0.,12.0,0.,12.0
1989-08-24T00:45:28.040 ,2,0,0.,12.0,0.,12.0,0.,12.0,0.,12.0
1989-08-24T00:45:40.040 ,3,1,0.,12.0,0.,12.0,0.,12.0,0.,12.0
1989-08-24T00:45:52.040 ,3,1,0.,12.0,0.,12.0,0.,12.0,0.,12.0
1989-08-24T00:46:04.040 ,3,0,0.,12.0,0.,12.0,0.,12.0,0.,12.0
1989-08-24T00:46:16.040 ,3,0,0.,12.0,0.,12.0,0.,12.0,0.,12.0
1989-08-24T00:46:28.040 ,4,1,0.,12.0,0.,12.0,0.,12.0,0.,12.0
1989-08-24T00:46:40.040 ,4,1,0.,12.0,0.,12.0,0.,12.0,0.,12.0
1989-08-24T00:46:52.040 ,4,0,0.,12.0,0.,12.0,0.,12.0,0.,12.0
1989-08-24T00:47:04.040 ,4,0,0.,12.0,0.,12.0,0.,12.0,0.,12.0
1989-08-24T00:47:16.040 ,5,1,0.,12.0,0.,12.0,0.,12.0,0.,12.0
1989-08-24T00:47:28.040 ,5,1,0.,12.0,0.,12.0,0.,12.0,0.,12.0
1989-08-24T00:47:40.040 ,5,0,0.,12.0,0.,12.0,0.,12.0,0.,12.0
1989-08-24T00:47:52.040 ,5,0,0.,12.0,0.,12.0,0.,12.0,0.,12.0
1989-08-24T00:48:04.040 ,6,1,0.,12.0,0.,12.0,0.,12.0,0.,12.0
1989-08-24T00:48:16.040 ,6,1,0.,12.0,0.,12.0,0.,12.0,0.,12.0
1989-08-24T00:48:28.040 ,6,0,0.,12.0,0.,12.0,0.,12.0,0.,12.0
1989-08-24T00:48:40.040 ,6,0,0.,12.0,0.,12.0,0.,12.0,0.,12.0
1989-08-24T00:48:52.040 ,7,1,0.,12.0,0.,12.0,0.,12.0,0.,12.0
1989-08-24T00:49:04.040 ,7,1,0.,12.0,0.,12.0,0.,12.0,0.,12.0
1989-08-24T00:49:16.040 ,7,0,0.,12.0,0.,12.0,0.,12.0,0.,12.0
1989-08-24T00:49:28.040 ,7,0,0.,12.0,0.,12.0,0.,12.0,0.,12.0
1989-08-24T00:49:40.040 ,7,1,0.,12.0,0.,12.0,0.,12.0,0.,12.0
1989-08-24T00:49:52.040 ,7,1,0.,12.0,0.,12.0,0.,12.0,0.,12.0
1989-08-24T00:50:04.040 ,7,0,0.,12.0,0.,12.0,0.,12.0,0.,12.0
1989-08-24T00:50:16.040 ,7,0,0.,12.0,0.,12.0,0.,12.0,0.,12.0
1989-08-24T00:50:28.040 ,6,1,0.,12.0,0.,12.0,0.,12.0,0.,12.0
1989-08-24T00:50:40.040 ,6,1,0.,12.0,0.,12.0,0.,12.0,0.,12.0
1989-08-24T00:50:52.040 ,6,0,0.,12.0,0.,12.0,0.,12.0,0.,12.0
1989-08-24T00:51:04.040 ,6,0,0.,12.0,0.,12.0,0.,12.0,0.,12.0
1989-08-24T00:51:16.040 ,5,1,0.,12.0,0.,12.0,0.,12.0,0.,12.0
1989-08-24T00:51:28.040 ,5,1,0.,12.0,0.,12.0,0.,12.0,0.,12.0
1989-08-24T00:51:40.040 ,5,0,0.,12.0,0.,12.0,0.,12.0,0.,12.0
1989-08-24T00:51:52.040 ,5,0,0.,12.0,0.,12.0,0.,12.0,0.,12.0
1989-08-24T00:52:04.040 ,4,1,0.,12.0,0.,12.0,0.,12.0,0.,12.0
1989-08-24T00:52:16.040 ,4,1,0.,12.0,0.,12.0,0.,12.0,0.,12.0
1989-08-24T00:52:28.040 ,4,0,0.,12.0,0.,12.0,0.,12.0,0.,12.0
1989-08-24T00:52:40.040 ,4,0,0.,12.0,0.,12.0,0.,12.0,0.,12.0
1989-08-24T00:52:52.040 ,3,1,0.,12.0,0.,12.0,0.,12.0,0.,12.0
1989-08-24T00:53:04.040 ,3,1,0.,12.0,0.,12.0,0.,12.0,0.,12.0
1989-08-24T00:53:16.040 ,3,0,0.,12.0,0.,12.0,0.,12.0,0.,12.0
1989-08-24T00:53:28.040 ,3,0,0.,12.0,0.,12.0,0.,12.0,0.,12.0
1989-08-24T00:53:40.040 ,2,1,0.,12.0,0.,12.0,0.,12.0,0.,12.0
1989-08-24T00:53:52.040 ,2,1,0.,12.0,0.,12.0,0.,12.0,0.,12.0
1989-08-24T00:54:04.040 ,2,0,0.,12.0,0.,12.0,0.,12.0,0.,12.0
1989-08-24T00:54:16.040 ,2,0,0.,12.0,0.,12.0,0.,12.0,0.,12.0
1989-08-24T00:54:28.040 ,1,1,0.,12.0,0.,12.0,0.,12.0,0.,12.0
1989-08-24T00:54:40.040 ,1,1,0.,12.0,0.,12.0,0.,12.0,0.,12.0
1989-08-24T00:54:52.040 ,1,0,0.,12.0,0.,12.0,0.,12.0,0.,12.0
1989-08-24T00:55:04.040 ,1,0,0.,12.0,0.,12.0,0.,12.0,0.,12.0
1989-08-24T00:55:16.040 ,0,1,0.,12.0,0.,12.0,0.,12.0,0.,12.0
1989-08-24T00:55:28.040 ,0,1,0.,12.0,0.,12.0,0.,12.0,0.,12.0
1989-08-24T00:55:40.040 ,0,0,0.,12.0,0.,12.0,0.,12.0,0.,12.0
1989-08-24T00:55:52.040 ,0,0,0.,12.0,0.,12.0,0.,12.0,0.,12.0
1989-08-24T00:56:04.040 ,0,1,0.,12.0,0.,12.0,0.,12.0,0.,12.0
1989-08-24T00:56:16.040 ,0,1,0.,12.0,0.,12.0,0.,12.0,0.,12.0
1989-08-24T00:56:28.040 ,0,0,0.,12.0,0.,12.0,0.,12.0,0.,12.0
1989-08-24T00:56:40.040 ,0,0,0.,12.0,0.,12.0,0.,12.0,0.,12.0
1989-08-24T00:56:52.040 ,1,1,0.,12.0,0.,12.0,0.,12.0,0.,12.0
1989-08-24T00:57:04.040 ,1,1,0.,12.0,0.,12.0,0.,12.0,0.,12.0
1989-08-24T00:57:16.040 ,1,0,0.,12.0,0.,12.0,0.,12.0,0.,12.0
1989-08-24T00:57:28.040 ,1,0,0.,12.0,0.,12.0,0.,12.0,0.,12.0
1989-08-24T00:57:40.040 ,2,1,0.,12.0,0.,12.0,0.,12.0,0.,12.0
1989-08-24T00:57:52.040 ,2,1,0.,12.0,0.,12.0,0.,12.0,0.,12.0
1989-08-24T00:58:04.040 ,2,0,0.,12.0,0.,12.0,0.,12.0,0.,12.0
1989-08-24T00:58:16.040 ,2,0,0.,12.0,0.,12.0,0.,12.0,0.,12.0
1989-08-24T00:58:28.040 ,3,1,0.,12.0,0.,12.0,0.,12.0,0.,12.0
1989-08-24T00:58:40.040 ,3,1,0.,12.0,0.,12.0,0.,12.0,0.,12.0
1989-08-24T00:58:52.040 ,3,0,0.,12.0,0.,12.0,0.,12.0,0.,12.0
1989-08-24T00:59:04.040 ,3,0,0.,12.0,0.,12.0,0.,12.0,0.,12.0
1989-08-24T00:59:16.040 ,4,1,0.,12.0,0.,12.0,0.,12.0,0.,12.0
1989-08-24T00:59:28.040 ,4,1,0.,12.0,0.,12.0,0.,12.0,0.,12.0
1989-08-24T00:59:40.040 ,4,0,0.,12.0,0.,12.0,0.,12.0,0.,12.0
1989-08-24T00:59:52.040 ,4,0,0.,12.0,0.,12.0,0.,12.0,0.,12.0
1989-08-24T01:00:04.040 ,5,1,0.,12.0,0.,12.0,0.,12.0,0.,12.0
1989-08-24T01:00:16.040 ,5,1,0.,12.0,0.,12.0,0.,12.0,0.,12.0
1989-08-24T01:00:28.040 ,5,0,0.,12.0,0.,12.0,0.,12.0,0.,12.0
1989-08-24T01:00:40.040 ,5,0,0.,12.0,0.,12.0,0.,12.0,0.,12.0
1989-08-24T01:00:52.040 ,6,1,0.,12.0,0.,12.0,0.,12.0,0.,12.0
1989-08-24T01:01:04.040 ,6,1,0.,12.0,0.,12.0,0.,12.0,0.,12.0
1989-08-24T01:01:16.040 ,6,0,0.,12.0,0.,12.0,0.,12.0,0.,12.0
1989-08-24T01:01:28.040 ,6,0,0.,12.0,0.,12.0,0.,12.0,0.,12.0
1989-08-24T01:01:40.040 ,7,1,0.,12.0,0.,12.0,0.,12.0,0.,12.0
1989-08-24T01:01:52.040 ,7,1,0.,12.0,0.,12.0,0.,12.0,0.,12.0
1989-08-24T01:02:04.040 ,7,0,0.,12.0,0.,12.0,0.,12.0,0.,12.0
1989-08-24T01:02:16.040 ,7,0,0.,12.0,0.,12.0,0.,12.0,0.,12.0
1989-08-24T01:02:28.040 ,7,1,0.,12.0,0.,12.0,0.,12.0,0.,12.0
1989-08-24T01:02:40.040 ,7,1,0.,12.0,0.,12.0,0.,12.0,0.,12.0
1989-08-24T01:02:52.040 ,7,0,0.,12.0,0.,12.0,0.,12.0,0.,12.0
1989-08-24T01:03:04.040 ,7,0,0.,12.0,0.,12.0,0.,12.0,0.,12.0
1989-08-24T01:03:16.040 ,6,1,0.,12.0,0.,12.0,0.,12.0,0.,12.0
1989-08-24T01:03:28.040 ,6,1,0.,12.0,0.,12.0,0.,12.0,0.,12.0
1989-08-24T01:03:40.040 ,6,0,0.,12.0,0.,12.0,0.,12.0,0.,12.0
1989-08-24T01:03:52.040 ,6,0,0.,12.0,0.,12.0,0.,12.0,0.,12.0
1989-08-24T01:04:04.040 ,5,1,0.,12.0,0.,12.0,0.,12.0,0.,12.0
1989-08-24T01:04:16.040 ,5,1,0.,12.0,0.,12.0,0.,12.0,0.,12.0
1989-08-24T01:04:28.040 ,5,0,0.,12.0,0.,12.0,0.,12.0,0.,12.0
1989-08-24T01:04:40.040 ,5,0,0.,12.0,0.,12.0,0.,12.0,0.,12.0
1989-08-24T01:04:52.040 ,4,1,0.,12.0,0.,12.0,0.,12.0,0.,12.0
1989-08-24T01:05:04.040 ,4,1,0.,12.0,0.,12.0,0.,12.0,0.,12.0
1989-08-24T01:05:16.040 ,4,0,0.,12.0,0.,12.0,0.,12.0,0.,12.0
1989-08-24T01:05:28.040 ,4,0,0.,12.0,0.,12.0,0.,12.0,0.,12.0
1989-08-24T01:05:40.040 ,3,1,0.,12.0,0.,12.0,0.,12.0,0.,12.0
1989-08-24T01:05:52.040 ,3,1,0.,12.0,0.,12.0,0.,12.0,0.,12.0
1989-08-24T01:06:04.040 ,3,0,0.,12.0,0.,12.0,0.,12.0,0.,12.0
1989-08-24T01:06:16.040 ,3,0,0.,12.0,0.,12.0,0.,12.0,0.,12.0
1989-08-24T01:06:28.040 ,2,1,0.,12.0,0.,12.0,0.,12.0,0.,12.0
1989-08-24T01:06:40.040 ,2,1,0.,12.0,0.,12.0,0.,12.0,0.,12.0
1989-08-24T01:06:52.040 ,2,0,0.,12.0,0.,12.0,0.,12.0,0.,12.0
1989-08-24T01:07:04.040 ,2,0,0.,12.0,0.,12.0,0.,12.0,0.,12.0
1989-08-24T01:07:16.040 ,1,1,0.,12.0,0.,12.0,0.,12.0,0.,12.0
1989-08-24T01:07:28.040 ,1,1,0.,12.0,0.,12.0,0.,12.0,0.,12.0
1989-08-24T01:07:40.040 ,1,0,0.,12.0,0.,12.0,0.,12.0,0.,12.0
1989-08-24T01:07:52.040 ,1,0,0.,12.0,0.,12.0,0.,12.0,0.,12.0
1989-08-24T01:08:04.040 ,0,1,0.,12.0,0.,12.0,0.,12.0,0.,12.0
1989-08-24T01:08:16.040 ,0,1,0.,12.0,0.,12.0,0.,12.0,0.,12.0
1989-08-24T01:08:28.040 ,0,0,0.,12.0,0.,12.0,0.,12.0,0.,12.0
1989-08-24T01:08:40.040 ,0,0,0.,12.0,0.,12.0,0.,12.0,0.,12.0
1989-08-24T01:08:52.040 ,0,1,0.,12.0,0.,12.0,0.,12.0,0.,12.0
1989-08-24T01:09:04.040 ,0,1,0.,12.0,0.,12.0,0.,12.0,0.,12.0
1989-08-24T01:09:16.040 ,0,0,0.,12.0,0.,12.0,0.,12.0,0.,12.0
1989-08-24T01:09:28.040 ,0,0,0.,12.0,0.,12.0,0.,12.0,0.,12.0
1989-08-24T01:09:40.040 ,1,1,0.,12.0,0.,12.0,0.,12.0,0.,12.0
1989-08-24T01:09:52.040 ,1,1,0.,12.0,0.,12.0,0.,12.0,0.,12.0
1989-08-24T01:10:04.040 ,1,0,0.,12.0,0.,12.0,0.,12.0,0.,12.0
1989-08-24T01:10:16.040 ,1,0,0.,12.0,0.,12.0,0.,12.0,0.,12.0
1989-08-24T01:10:28.040 ,2,1,0.,12.0,0.,12.0,0.,12.0,0.,12.0
1989-08-24T01:10:40.040 ,2,1,0.,12.0,0.,12.0,0.,12.0,0.,12.0
1989-08-24T01:10:52.040 ,2,0,0.,12.0,0.,12.0,0.,12.0,0.,12.0
1989-08-24T01:11:04.040 ,2,0,0.,12.0,0.,12.0,0.,12.0,0.,12.0
1989-08-24T01:11:16.040 ,3,1,0.,12.0,0.,12.0,0.,12.0,0.,12.0
1989-08-24T01:11:28.040 ,3,1,0.,12.0,0.,12.0,0.,12.0,0.,12.0
1989-08-24T01:11:40.040 ,3,0,0.,12.0,0.,12.0,0.,12.0,0.,12.0
1989-08-24T01:11:52.040 ,3,0,0.,12.0,0.,12.0,0.,12.0,0.,12.0
1989-08-24T01:12:04.040 ,4,1,0.,12.0,0.,12.0,0.,12.0,0.,12.0
1989-08-24T01:12:16.040 ,4,1,0.,12.0,0.,12.0,0.,12.0,0.,12.0
1989-08-24T01:12:28.040 ,4,0,0.,12.0,0.,12.0,0.,12.0,0.,12.0
1989-08-24T01:12:40.040 ,4,0,0.,12.0,0.,12.0,0.,12.0,0.,12.0
1989-08-24T01:12:52.040 ,5,1,0.,12.0,0.,12.0,0.,12.0,0.,12.0
1989-08-24T01:13:04.040 ,5,1,0.,12.0,0.,12.0,0.,12.0,0.,12.0
1989-08-24T01:13:16.040 ,5,0,0.,12.0,0.,12.0,0.,12.0,0.,12.0
1989-08-24T01:13:28.040 ,5,0,0.,12.0,0.,12.0,0.,12.0,0.,12.0
1989-08-24T01:13:40.030 ,6,1,0.,12.0,0.,12.0,0.,12.0,0.,12.0
1989-08-24T01:13:52.040 ,6,1,0.,12.0,0.,12.0,0.,12.0,0.,12.0
1989-08-24T01:14:04.030 ,6,0,0.,12.0,0.,12.0,0.,12.0,0.,12.0
1989-08-24T01:14:16.030 ,6,0,0.,12.0,0.,12.0,0.,12.0,0.,12.0
1989-08-24T01:14:28.030 ,7,1,0.,12.0,0.,12.0,0.,12.0,0.,12.0
1989-08-24T01:14:40.040 ,7,1,0.,12.0,0.,12.0,0.,12.0,0.,12.0
1989-08-24T01:14:52.030 ,7,0,0.,12.0,0.,12.0,0.,12.0,0.,12.0
1989-08-24T01:15:04.030 ,7,0,0.,12.0,0.,12.0,0.,12.0,0.,12.0
1989-08-24T01:15:16.030 ,7,1,0.,12.0,0.,12.0,0.,12.0,0.,12.0
1989-08-24T01:15:28.040 ,7,1,0.,12.0,0.,12.0,0.,12.0,0.,12.0
1989-08-24T01:15:40.030 ,7,0,0.,12.0,0.,12.0,0.,12.0,0.,12.0
1989-08-24T01:15:52.040 ,7,0,0.,12.0,0.,12.0,0.,12.0,0.,12.0
1989-08-24T01:16:04.030 ,6,1,0.,12.0,0.,12.0,0.,12.0,0.,12.0
1989-08-24T01:16:16.040 ,6,1,0.,12.0,0.,12.0,0.,12.0,0.,12.0
1989-08-24T01:16:28.030 ,6,0,0.,12.0,0.,12.0,0.,12.0,0.,12.0
1989-08-24T01:16:40.040 ,6,0,0.,12.0,0.,12.0,0.,12.0,0.,12.0
1989-08-24T01:16:52.030 ,5,1,0.,12.0,0.,12.0,0.,12.0,0.,12.0
1989-08-24T01:17:04.040 ,5,1,0.,12.0,0.,12.0,0.,12.0,0.,12.0
1989-08-24T01:17:16.040 ,5,0,0.,12.0,0.,12.0,0.,12.0,0.,12.0
1989-08-24T01:17:28.040 ,5,0,0.,12.0,0.,12.0,0.,12.0,0.,12.0